Salt Lake City, UT

10:51 AM MST on February 22, 2017 (GMT -0700)
Salt Lake City International

Weather History for KSLC - May, 2013

Change the Weather History Date:

Sunday, May 5, 2013

  Actual Average Record
Temperature  
Mean Temperature 63 °F 56 °F  
Max Temperature 78 °F 68 °F 88 °F (1966)
Min Temperature 48 °F 45 °F 28 °F (1961)
Degree Days  
Heating Degree Days 2 9  
Month to date heating degree days 55 49  
Since 1 July heating degree days 5373 5405  
Cooling Degree Days 0 1  
Month to date cooling degree days 0 4  
Year to date cooling degree days 0 8  
Growing Degree Days 13 (Base 50)    
Moisture  
Dew Point 33 °F    
Average Humidity 37    
Maximum Humidity 54    
Minimum Humidity 20    
Precipitation  
Precipitation 0.00 in 0.07 in 1.12 in (1965)
Month to date precipitation T 0.35  
Year to date precipitation 4.86 6.63  
Snow  
Snow 0.00 in 0.00 in 5.30 in (1965)
Month to date snowfall T 0.1  
Since 1 July snowfall 69.9 56.0  
Snow Depth 0.00 in    
Sea Level Pressure  
Sea Level Pressure 29.74 in    
Wind  
Wind Speed 6 mph (NNW)    
Max Wind Speed 16 mph    
Max Gust Speed 20 mph    
Visibility 10 miles    
Events      
T = Trace of Precipitation, MM = Missing Value Source: NWS Daily Summary

Daily Weather History Graph

Daily Weather History Graph

Search for Another Location

Airport or City:

Trip Planner

Search our weather history database for the weather conditions in past years. The results will help you decide how hot, cold, wet, or windy it might be!

Date:

Astronomy

May. 05, 2013 Rise Set
Actual Time 6:21 AM MDT 8:28 PM MDT
Civil Twilight 5:50 AM MDT 8:59 PM MDT
Nautical Twilight 5:13 AM MDT 9:36 PM MDT
Astronomical Twilight 4:33 AM MDT 10:16 PM MDT
Moon 3:55 AM MDT (5/5) 4:30 PM MDT (5/5)
Length of Visible Light 15h 08m
Length of Day
14h 07m
Waning Crescent, 17% of the Moon is Illuminated
May 5
Waning Crescent
May 9
New
May 17
First Quarter
May 24
Full
May 31
Last Quarter

Hourly Weather History & Observations

Time (MDT) Temp. Dew Point Humidity Pressure Visibility Wind Dir Wind Speed Gust Speed Precip Events Conditions
12:53 AM 52.0 °F 36.0 °F 54% 29.76 in 10.0 mi WSW 3.5 mph - N/A   Mostly Cloudy
1:53 AM 52.0 °F 36.0 °F 54% 29.76 in 10.0 mi West 5.8 mph - N/A   Mostly Cloudy
2:53 AM 53.1 °F 35.1 °F 50% 29.75 in 10.0 mi Calm Calm - N/A   Mostly Cloudy
3:53 AM 57.0 °F 30.0 °F 36% 29.73 in 10.0 mi East 13.8 mph - N/A   Mostly Cloudy
4:53 AM 48.0 °F 34.0 °F 58% 29.75 in 10.0 mi Calm Calm - N/A   Mostly Cloudy
5:53 AM 50.0 °F 33.1 °F 52% 29.76 in 10.0 mi East 3.5 mph - N/A   Mostly Cloudy
6:53 AM 50.0 °F 35.1 °F 57% 29.77 in 10.0 mi ESE 3.5 mph - N/A   Mostly Cloudy
7:53 AM 57.0 °F 34.0 °F 42% 29.77 in 10.0 mi ENE 3.5 mph - N/A   Mostly Cloudy
8:53 AM 60.1 °F 33.1 °F 36% 29.80 in 10.0 mi Variable 3.5 mph - N/A   Mostly Cloudy
9:53 AM 63.0 °F 30.9 °F 30% 29.79 in 10.0 mi NNW 3.5 mph - N/A   Mostly Cloudy
10:53 AM 63.0 °F 32.0 °F 31% 29.79 in 10.0 mi NW 4.6 mph - N/A   Mostly Cloudy
11:53 AM 68.0 °F 32.0 °F 26% 29.89 in 10.0 mi NW 5.8 mph - N/A   Mostly Cloudy
12:53 PM 70.0 °F 33.1 °F 26% 29.77 in 10.0 mi Variable 3.5 mph - N/A   Scattered Clouds
1:53 PM 73.0 °F 37.9 °F 28% 29.75 in 10.0 mi West 13.8 mph - N/A   Scattered Clouds
2:53 PM 72.0 °F 36.0 °F 27% 29.74 in 10.0 mi West 12.7 mph - N/A   Mostly Cloudy
3:53 PM 75.0 °F 35.1 °F 23% 29.71 in 10.0 mi North 5.8 mph - N/A   Mostly Cloudy
4:53 PM 75.9 °F 32.0 °F 20% 29.70 in 10.0 mi WNW 6.9 mph - N/A   Mostly Cloudy
5:53 PM 73.0 °F 36.0 °F 26% 29.69 in 10.0 mi WNW 15.0 mph - N/A   Mostly Cloudy
6:53 PM 73.9 °F 36.0 °F 25% 29.68 in 10.0 mi NW 9.2 mph - N/A   Mostly Cloudy
7:53 PM 71.1 °F 36.0 °F 28% 29.68 in 10.0 mi NE 5.8 mph - N/A   Mostly Cloudy
8:53 PM 71.1 °F 28.9 °F 21% 29.68 in 10.0 mi ESE 18.4 mph 25.3 mph N/A   Mostly Cloudy
9:53 PM 69.1 °F 30.0 °F 23% 29.70 in 10.0 mi ESE 12.7 mph - N/A   Mostly Cloudy
10:53 PM 66.0 °F 30.9 °F 27% 29.71 in 10.0 mi South 6.9 mph - N/A   Mostly Cloudy
11:53 PM 63.0 °F 32.0 °F 31% 29.71 in 10.0 mi ESE 3.5 mph - N/A   Mostly Cloudy